Beaufort, SC

3:55 AM EST on November 21, 2017 (GMT -0500)
Beaufort

Weather History for KARW - January, 2013

Change the Weather History Date:

Thursday, January 17, 2013

  Actual Average (KNBC) Record (KNBC)
Temperature  
Mean Temperature 58 °F -  
Max Temperature 71 °F 60 °F 78 °F (1932)
Min Temperature 44 °F 38 °F 17 °F (1972)
Degree Days  
Heating Degree Days 6    
Growing Degree Days 8 (Base 50)    
Moisture  
Dew Point 53 °F    
Average Humidity 77    
Maximum Humidity 94    
Minimum Humidity 60    
Precipitation  
Precipitation 0.00 in - - ()
Sea Level Pressure  
Sea Level Pressure 29.93 in    
Wind  
Wind Speed 8 mph (SSW)    
Max Wind Speed 24 mph    
Max Gust Speed 36 mph    
Visibility 7 miles    
Events Rain    
Averages and records for this station are not official NWS values.
T = Trace of Precipitation, MM = Missing Value Source: NWS Daily Summary

Daily Weather History Graph

Daily Weather History Graph

Search for Another Location

Airport or City:

Trip Planner

Search our weather history database for the weather conditions in past years. The results will help you decide how hot, cold, wet, or windy it might be!

Date:

Astronomy

Jan. 17, 2013 Rise Set
Actual Time 7:23 AM EST 5:42 PM EST
Civil Twilight 6:57 AM EST 6:08 PM EST
Nautical Twilight 6:27 AM EST 6:38 PM EST
Astronomical Twilight 5:57 AM EST 7:08 PM EST
Moon 10:54 AM EST (1/17) No Moon Set
Length of Visible Light 11h 11m
Length of Day
10h 18m
Waxing Crescent, 37% of the Moon is Illuminated
Jan 17
Waxing Crescent
Jan 18
First Quarter
Jan 26
Full
Feb 3
Last Quarter
Feb 10
New

Hourly Weather History & Observations

Time (EST) Temp. Windchill Dew Point Humidity Pressure Visibility Wind Dir Wind Speed Gust Speed Precip Events Conditions
12:15 AM 64.4 °F - 59.0 °F 83% 29.99 in 7.0 mi SSW 6.9 mph - N/A   Overcast
12:35 AM 64.4 °F - 59.0 °F 83% 29.99 in 10.0 mi SSW 6.9 mph - N/A   Mostly Cloudy
12:55 AM 64.4 °F - 59.0 °F 83% 29.99 in 10.0 mi SW 4.6 mph - N/A   Scattered Clouds
1:15 AM 64.4 °F - 59.0 °F 83% 29.99 in 10.0 mi SSW 4.6 mph - N/A   Clear
1:55 AM 62.6 °F - 59.0 °F 88% 29.99 in 7.0 mi SSW 5.8 mph - N/A   Clear
2:15 AM 62.6 °F - 59.0 °F 88% 29.99 in 10.0 mi SSW 5.8 mph - N/A   Clear
2:35 AM 62.6 °F - 59.0 °F 88% 29.98 in 7.0 mi SSW 4.6 mph - N/A   Clear
2:55 AM 60.8 °F - 59.0 °F 94% 29.98 in 7.0 mi SSW 4.6 mph - N/A   Clear
3:15 AM 60.8 °F - 59.0 °F 94% 29.98 in 7.0 mi South 4.6 mph - N/A   Clear
3:35 AM 60.8 °F - 59.0 °F 94% 29.97 in 7.0 mi South 3.5 mph - N/A   Clear
3:55 AM 60.8 °F - 59.0 °F 94% 29.96 in 7.0 mi South 3.5 mph - N/A   Clear
4:15 AM 60.8 °F - 59.0 °F 94% 29.96 in 7.0 mi South 3.5 mph - N/A   Clear
4:35 AM 60.8 °F - 59.0 °F 94% 29.96 in 7.0 mi SSW 4.6 mph - N/A   Clear
4:55 AM 60.8 °F - 59.0 °F 94% 29.96 in 7.0 mi South 3.5 mph - N/A   Clear
5:15 AM 60.8 °F - 59.0 °F 94% 29.96 in 7.0 mi South 4.6 mph - N/A   Clear
5:35 AM 60.8 °F - 57.2 °F 88% 29.96 in 7.0 mi SSW 3.5 mph - N/A   Clear
5:55 AM 60.8 °F - 57.2 °F 88% 29.96 in 7.0 mi South 3.5 mph - N/A   Clear
6:15 AM 60.8 °F - 59.0 °F 94% 29.96 in 7.0 mi SSW 3.5 mph - N/A   Clear
6:35 AM 60.8 °F - 57.2 °F 88% 29.96 in 7.0 mi South 3.5 mph - N/A   Clear
6:55 AM 62.6 °F - 59.0 °F 88% 29.96 in 7.0 mi South 4.6 mph - N/A   Clear
7:15 AM 62.6 °F - 57.2 °F 82% 29.96 in 7.0 mi South 3.5 mph - N/A   Clear
7:35 AM 62.6 °F - 57.2 °F 82% 29.96 in 5.0 mi Calm Calm - N/A   Haze
7:55 AM 62.6 °F - 57.2 °F 82% 29.96 in 5.0 mi South 4.6 mph - N/A   Haze
8:15 AM 62.6 °F - 55.4 °F 77% 29.96 in 7.0 mi South 4.6 mph - N/A   Clear
8:35 AM 64.4 °F - 57.2 °F 77% 29.96 in 7.0 mi South 5.8 mph - N/A   Clear
8:55 AM 66.2 °F - 57.2 °F 73% 29.96 in 7.0 mi South 5.8 mph - N/A   Clear
9:15 AM 68.0 °F - 57.2 °F 68% 29.96 in 5.0 mi Calm Calm - N/A   Haze
9:55 AM 68.0 °F - 57.2 °F 68% 29.95 in 7.0 mi South 8.1 mph 16.1 mph N/A   Clear
10:15 AM 69.8 °F - 57.2 °F 64% 29.94 in 7.0 mi South 9.2 mph - N/A   Clear
10:35 AM 69.8 °F - 57.2 °F 64% 29.93 in 7.0 mi South 4.6 mph - N/A   Clear
10:55 AM 71.6 °F - 57.2 °F 60% 29.92 in 7.0 mi South 9.2 mph - N/A   Clear
11:15 AM 71.6 °F - 57.2 °F 60% 29.91 in 7.0 mi South 9.2 mph 17.3 mph N/A   Clear
11:35 AM 71.6 °F - 57.2 °F 60% 29.89 in 7.0 mi South 12.7 mph - N/A   Clear
11:55 AM 71.6 °F - 57.2 °F 60% 29.88 in 7.0 mi South 10.4 mph 17.3 mph N/A   Clear
12:15 PM 71.6 °F - 57.2 °F 60% 29.86 in 5.0 mi South 10.4 mph 20.7 mph N/A   Haze
12:35 PM 71.6 °F - 57.2 °F 60% 29.85 in 7.0 mi SSW 6.9 mph 17.3 mph N/A   Scattered Clouds
12:55 PM 71.6 °F - 59.0 °F 64% 29.83 in 7.0 mi South 9.2 mph 18.4 mph N/A   Mostly Cloudy
1:15 PM 68.0 °F - 57.2 °F 68% 29.82 in 7.0 mi South 10.4 mph 19.6 mph N/A   Overcast
1:35 PM 69.8 °F - 59.0 °F 68% 29.80 in 7.0 mi South 12.7 mph 23.0 mph N/A   Mostly Cloudy
1:55 PM 69.8 °F - 59.0 °F 68% 29.78 in 7.0 mi South 10.4 mph 23.0 mph N/A   Scattered Clouds
2:15 PM 69.8 °F - 59.0 °F 68% 29.78 in 7.0 mi South 12.7 mph 20.7 mph N/A   Scattered Clouds
2:35 PM 68.0 °F - 57.2 °F 68% 29.77 in 7.0 mi South 10.4 mph 26.5 mph N/A   Mostly Cloudy
2:55 PM 68.0 °F - 57.2 °F 68% 29.77 in 7.0 mi SSW 9.2 mph 20.7 mph N/A   Overcast
3:15 PM 62.6 °F - 59.0 °F 88% 29.80 in 3.0 mi WSW 24.2 mph 35.7 mph N/A Rain Rain
3:35 PM 60.8 °F - 55.4 °F 82% 29.81 in 7.0 mi WSW 15.0 mph 26.5 mph N/A   Overcast
3:55 PM 57.2 °F - 53.6 °F 88% 29.83 in 2.5 mi West 21.9 mph 29.9 mph N/A Rain Light Rain
4:15 PM 55.4 °F - 51.8 °F 88% 29.86 in 3.0 mi WSW 20.7 mph 31.1 mph N/A Rain Light Rain
4:55 PM 53.6 °F - 50.0 °F 88% 29.87 in 5.0 mi WSW 17.3 mph 26.5 mph N/A Rain Light Rain
5:35 PM 51.8 °F - 44.6 °F 76% 29.88 in 7.0 mi WSW 16.1 mph 24.2 mph N/A   Overcast
5:55 PM 51.8 °F - 44.6 °F 76% 29.89 in 7.0 mi WSW 10.4 mph 20.7 mph N/A   Scattered Clouds
6:15 PM 50.0 °F - 44.6 °F 82% 29.90 in 10.0 mi WSW 9.2 mph 17.3 mph N/A   Clear
6:35 PM 50.0 °F - 44.6 °F 82% 29.92 in 7.0 mi WSW 8.1 mph - N/A   Clear
6:55 PM 50.0 °F - 44.6 °F 82% 29.93 in 7.0 mi WSW 9.2 mph - N/A   Clear
7:35 PM 50.0 °F - 44.6 °F 82% 29.95 in 7.0 mi WSW 10.4 mph - N/A   Mostly Cloudy
8:15 PM 50.0 °F - 42.8 °F 76% 29.98 in 7.0 mi West 20.7 mph 31.1 mph N/A   Mostly Cloudy
8:35 PM 48.2 °F - 39.2 °F 71% 30.01 in 10.0 mi West 13.8 mph 26.5 mph N/A   Mostly Cloudy
8:55 PM 46.4 °F 38.7 °F 35.6 °F 66% 30.03 in 10.0 mi WNW 20.7 mph 35.7 mph N/A   Scattered Clouds
9:15 PM 46.4 °F 38.3 °F 35.6 °F 66% 30.04 in 10.0 mi West 23.0 mph 33.4 mph N/A   Clear
9:35 PM 46.4 °F 40.1 °F 35.6 °F 66% 30.05 in 10.0 mi West 15.0 mph 24.2 mph N/A   Mostly Cloudy
9:55 PM 46.4 °F 39.2 °F 35.6 °F 66% 30.05 in 10.0 mi West 18.4 mph 24.2 mph N/A   Overcast
10:15 PM 46.4 °F 38.1 °F 35.6 °F 66% 30.06 in 10.0 mi WNW 24.2 mph 29.9 mph N/A   Mostly Cloudy
10:35 PM 46.4 °F 39.8 °F 33.8 °F 62% 30.07 in 10.0 mi West 16.1 mph 28.8 mph N/A   Mostly Cloudy
10:55 PM 44.6 °F 37.8 °F 33.8 °F 66% 30.07 in 10.0 mi West 15.0 mph 28.8 mph N/A   Scattered Clouds